Location: Casteau
(50.5142°N, 4.0161°E)
Time: 19:42:27
(UTC+00:00)

Transit 2A - Pass Details

Date: 01 August 2021
Orbit: 594 x 964 km, 66.7° (Epoch: 27 September)

Event Time Altitude Azimuth Distance (km) Brightness Sun altitude
Rises 08:40:35 0° 275° (W) 2,918 8.6 40.3°
Reaches altitude 10° 08:43:30 10° 296° (WNW) 2,063 7.9 40.7°
Maximum altitude 08:46:38 17° 338° (NNW) 1,682 7.6 41.2°
Drops below altitude 10° 08:49:56 10° 20° (NNE) 2,205 8.4 41.6°
Sets 08:53:12 0° 40° (NE) 3,210 9.4 42.1°
